EI4HQ Weather Reports


Display with metric or nautical units.
time (UTC)temp
F
wind
direction
speed
MPH
gust
MPH
rain 1hr
in
rain 24hr
in
rain mn
in
humidity
%
barometer
mb
20260504040003 49 338 7.0 10.0 0.00 0.33 0.00 90 1014.3
20260504035403 49 336 7.0 9.0 0.00 0.33 0.00 90 1014.4
20260504034503 49 335 6.0 8.0 0.00 0.33 0.00 90 1014.4
20260504033603 49 341 7.0 10.0 0.00 0.33 0.00 90 1014.3
20260504032703 49 349 5.0 9.0 0.00 0.33 0.00 90 1014.2
20260504031803 49 336 4.0 6.0 0.00 0.33 0.00 90 1014.2
20260504030903 50 341 4.0 7.0 0.00 0.33 0.00 90 1014.1
20260504030003 50 353 5.0 8.0 0.00 0.33 0.00 90 1014.2
20260504025403 50 344 6.0 9.0 0.00 0.33 0.00 90 1014.1
20260504024503 50 339 6.0 9.0 0.00 0.33 0.00 90 1014.1
20260504023603 50 343 6.0 8.0 0.00 0.33 0.00 90 1014.1
20260504022703 50 345 6.0 8.0 0.00 0.33 0.00 90 1014.0
20260504021803 50 345 5.0 8.0 0.00 0.33 0.00 90 1014.0
20260504020903 51 341 5.0 7.0 0.00 0.33 0.00 90 1014.0
20260504020003 51 343 5.0 6.0 0.00 0.33 0.00 90 1014.0
20260504015403 51 340 5.0 6.0 0.00 0.33 0.00 90 1014.0
20260504014503 51 333 4.0 6.0 0.00 0.33 0.00 90 1013.9
20260504013603 51 334 3.0 5.0 0.00 0.33 0.00 90 1014.0
20260504012703 51 334 3.0 5.0 0.00 0.33 0.00 90 1014.0
20260504011803 51 334 3.0 5.0 0.00 0.33 0.00 90 1013.9
20260504010903 51 334 3.0 5.0 0.00 0.33 0.00 90 1014.0
20260504010003 51 334 1.0 3.0 0.00 0.33 0.00 90 1013.9
20260504005403 51 334 0.0 1.0 0.00 0.33 0.00 90 1013.9
20260504004503 51 334 0.0 1.0 0.00 0.33 0.00 90 1013.9
20260504003603 51 0 0.0 0.0 0.00 0.33 0.00 90 1013.9
20260504002703 50 334 1.0 3.0 0.00 0.33 0.00 90 1013.9
20260504001803 50 334 2.0 4.0 0.00 0.33 0.00 90 1013.9
20260504000903 50 334 3.0 6.0 0.00 0.33 0.00 90 1013.8
20260504000003 50 334 4.0 6.0 0.00 0.33 0.00 90 1013.8
20260503235403 50 334 4.0 6.0 0.00 0.33 0.00 90 1013.7
20260503234503 50 340 4.0 5.0 0.00 0.33 0.00 90 1013.7
20260503233603 50 348 3.0 5.0 0.00 0.33 0.00 90 1013.7
20260503232703 50 348 2.0 3.0 0.00 0.33 0.00 90 1013.6
20260503231803 50 21 1.0 4.0 0.00 0.33 0.00 90 1013.6
20260503230903 50 105 0.0 1.0 0.01 0.33 0.00 90 1013.5
20260503230003 50 105 0.0 1.0 0.01 0.33 0.00 90 1013.5
20260503225403 50 105 0.0 1.0 0.02 0.33 0.33 89 1013.4
20260503224503 50 105 2.0 4.0 0.04 0.33 0.33 89 1013.3
20260503223603 50 105 2.0 4.0 0.07 0.33 0.33 89 1013.2
20260503222703 50 105 2.0 3.0 0.08 0.33 0.33 89 1013.3
20260503221803 50 105 2.0 3.0 0.09 0.33 0.33 89 1013.4
20260503220903 51 105 2.0 4.0 0.10 0.32 0.32 89 1013.4
20260503220003 51 105 2.0 4.0 0.12 0.32 0.32 89 1013.4
20260503215403 51 105 2.0 4.0 0.10 0.31 0.31 89 1013.4
20260503214503 51 110 3.0 5.0 0.09 0.29 0.29 89 1013.3
20260503213603 52 124 3.0 7.0 0.06 0.26 0.26 89 1013.3
20260503212703 52 137 4.0 8.0 0.06 0.25 0.25 89 1013.2
20260503211803 52 125 3.0 7.0 0.05 0.24 0.24 89 1013.2
20260503210903 52 122 3.0 7.0 0.05 0.22 0.22 89 1013.0
20260503210003 52 128 4.0 8.0 0.03 0.20 0.20 88 1013.0
20260503205403 53 134 3.0 6.0 0.04 0.20 0.20 89 1012.9
20260503204503 53 139 2.0 4.0 0.03 0.20 0.20 89 1012.7
20260503203603 53 345 0.0 2.0 0.05 0.20 0.20 89 1012.6
20260503202703 53 345 0.0 2.0 0.06 0.19 0.19 88 1012.4
20260503201803 53 345 0.0 2.0 0.06 0.19 0.19 88 1012.3
20260503200903 53 345 0.0 1.0 0.05 0.17 0.17 88 1012.3
20260503200003 53 0 0.0 0.0 0.05 0.17 0.17 88 1012.2
20260503195403 53 0 0.0 0.0 0.05 0.17 0.17 88 1012.1
20260503194503 53 345 0.0 1.0 0.06 0.17 0.17 88 1012.0
20260503193603 53 345 0.0 1.0 0.04 0.15 0.15 88 1012.0
20260503192703 53 345 0.0 1.0 0.02 0.13 0.13 88 1011.9
20260503191803 54 0 0.0 0.0 0.02 0.13 0.13 88 1011.8
20260503190903 54 345 0.0 3.0 0.02 0.13 0.13 88 1011.7
20260503190003 54 345 2.0 4.0 0.02 0.13 0.13 87 1011.7
20260503185403 54 345 3.0 5.0 0.01 0.12 0.12 87 1011.6
20260503184503 54 345 3.0 4.0 0.00 0.11 0.11 87 1011.5
20260503183603 54 353 2.0 4.0 0.00 0.11 0.11 87 1011.4
20260503182703 53 83 0.0 3.0 0.00 0.11 0.11 87 1011.4
20260503181803 53 129 0.0 1.0 0.00 0.11 0.11 87 1011.3
20260503180903 53 129 0.0 1.0 0.00 0.11 0.11 87 1011.4
20260503180003 53 129 0.0 2.0 0.00 0.11 0.11 87 1011.3
20260503175403 54 129 0.0 1.0 0.00 0.11 0.11 87 1011.3
20260503174503 53 129 0.0 2.0 0.00 0.11 0.11 87 1011.3
20260503173603 53 129 0.0 1.0 0.00 0.11 0.11 87 1011.3
20260503172703 53 130 0.0 1.0 0.00 0.11 0.11 88 1011.3
20260503171803 53 130 0.0 2.0 0.01 0.11 0.11 88 1011.2
20260503170903 53 130 0.0 2.0 0.01 0.11 0.11 88 1011.2
20260503150903 53 105 4.0 8.0 0.00 0.09 0.09 88 1011.1
20260503130903 52 89 5.0 14.0 0.02 0.09 0.09 89 1011.1
20260503080903 53 9 3.0 8.0 0.00 0.00 0.00 90 1010.6
20260503072703 52 339 4.0 7.0 0.00 0.00 0.00 90 1010.4
20260503071803 52 336 3.0 7.0 0.00 0.00 0.00 91 1010.4
20260503070903 52 336 2.0 7.0 0.00 0.00 0.00 91 1010.4
20260503054503 50 339 6.0 8.0 0.00 0.04 0.00 90 1009.7
20260503053603 50 336 5.0 7.0 0.00 0.04 0.00 90 1009.7
20260503052703 50 336 5.0 7.0 0.00 0.04 0.00 90 1009.7
20260503051803 50 336 6.0 8.0 0.00 0.04 0.00 90 1009.7
20260503050903 49 338 6.0 8.0 0.00 0.04 0.00 90 1009.7
20260503050003 50 336 4.0 6.0 0.00 0.04 0.00 90 1009.7
20260503045403 50 339 3.0 5.0 0.00 0.04 0.00 90 1009.7
20260503044503 49 344 3.0 5.0 0.00 0.05 0.00 90 1009.8
20260503043603 49 335 4.0 7.0 0.00 0.05 0.00 90 1009.9
20260503042703 49 340 4.0 6.0 0.00 0.06 0.00 90 1009.9
20260503041803 49 337 4.0 5.0 0.00 0.06 0.00 90 1009.9
20260503040903 49 337 5.0 6.0 0.00 0.07 0.00 90 1009.9